Location: Unspecified
(49.9820°N, 20.4363°E)
Time: 03:45:13
(UTC+02:00)

Vanguard 3 - Pass Details

Date: 17 May 2026
Orbit: 507 x 3204 km, 33.3° (Epoch: 6 June)

Event Time Altitude Azimuth Distance (km) Brightness Sun altitude
Rises 16:04:41 0° 254° (WSW) 6,924 12.8 38.6°
Reaches altitude 10° 16:09:27 10° 249° (WSW) 6,048 12.9 37.9°
Maximum altitude 16:27:05 45° 186° (S) 3,789 11.1 35.1°
Drops below altitude 10° 16:41:37 10° 121° (ESE) 5,047 10.9 32.8°
Sets 16:45:11 0° 115° (ESE) 5,739 11.1 32.2°
